Total_Precipitation_Accumulation
1.47 1.56 1.85 1.58 1.46 1.43 1.50 1.57 1.50 1.53 1.64 1.71 1.76 1.77 1.83 1.91 1.96 2.01 2.10 2.17 2.27 2.34 2.24 2.17 2.08 2.21 2.22 2.13 1.89 1.70 1.57 1.60 1.53 1.40 1.24 1.27 1.38 1.59 1.95 2.10 1.97 1.41 1.35
1.19 1.44 1.67 1.45 1.36 1.38 1.35 1.33 1.31 1.35 1.47 1.58 1.72 1.71 1.77 1.77 1.78 1.81 1.98 2.20 2.34 2.33 2.19 2.01 1.90 2.06 2.10 2.03 1.79 1.64 1.52 1.58 1.53 1.53 1.37 1.18 1.42 1.79 2.07 2.13 2.19 1.50 1.41
0.86 1.11 1.19 1.25 1.19 1.25 1.28 1.33 1.48 1.48 1.51 1.58 1.68 1.65 1.63 1.61 1.65 1.71 1.90 2.05 2.11 1.93 1.82 1.76 1.78 1.82 1.80 1.77 1.67 1.58 1.52 1.47 1.57 1.76 1.90 1.26 1.10 1.74 1.94 1.99 1.87 1.42 1.25
0.69 0.85 0.90 1.02 0.99 1.01 1.14 1.31 1.45 1.52 1.55 1.64 1.67 1.62 1.53 1.59 1.62 1.64 1.67 1.72 1.66 1.44 1.36 1.45 1.57 1.62 1.57 1.46 1.45 1.51 1.53 1.56 1.79 2.21 2.30 1.53 1.10 1.41 1.73 1.67 1.48 1.29 1.12
0.61 0.73 0.86 0.91 0.86 0.86 0.97 1.12 1.32 1.48 1.52 1.56 1.54 1.52 1.54 1.55 1.53 1.52 1.46 1.47 1.43 1.36 1.23 1.25 1.44 1.53 1.48 1.35 1.35 1.47 1.54 1.65 2.02 2.19 1.91 1.78 1.65 1.61 1.68 1.59 1.44 1.30 1.18
0.42 0.52 0.67 0.79 0.71 0.76 0.98 1.14 1.25 1.35 1.43 1.43 1.47 1.58 1.59 1.56 1.57 1.47 1.32 1.30 1.31 1.27 1.16 1.17 1.38 1.52 1.48 1.34 1.33 1.51 1.66 1.94 2.10 1.70 1.53 1.54 1.65 1.75 1.70 1.73 1.70 1.52 1.38
0.28 0.39 0.55 0.73 0.67 0.73 0.91 1.13 1.29 1.44 1.53 1.52 1.55 1.48 1.49 1.52 1.44 1.31 1.13 1.11 1.14 1.09 1.02 1.06 1.25 1.47 1.55 1.50 1.44 1.60 1.73 2.02 1.89 1.54 1.45 1.63 1.53 1.50 1.63 1.79 2.00 1.84 1.56
0.19 0.27 0.38 0.60 0.66 0.74 0.87 1.09 1.36 1.51 1.59 1.54 1.41 1.27 1.26 1.25 1.18 1.09 0.96 0.98 0.98 0.85 0.84 0.94 1.10 1.19 1.40 1.58 1.58 1.62 1.65 1.67 1.40 1.37 1.32 1.39 1.11 1.23 1.52 1.75 1.92 1.85 1.60
0.23 0.23 0.33 0.45 0.52 0.62 0.84 1.06 1.21 1.18 1.18 1.16 1.12 1.14 1.19 1.17 1.04 0.96 0.87 0.94 0.86 0.84 0.88 1.01 1.10 1.11 1.35 1.54 1.53 1.50 1.61 1.49 1.22 1.34 1.29 1.45 1.31 1.44 1.75 1.85 1.77 1.80 1.65
0.45 0.39 0.46 0.48 0.53 0.59 0.67 0.82 0.93 0.97 0.97 0.98 0.99 1.00 1.00 1.04 1.00 0.91 0.84 0.96 0.83 0.78 0.88 1.11 1.27 1.24 1.38 1.51 1.58 1.70 1.87 1.59 1.26 1.29 1.39 1.31 1.37 1.65 2.02 2.06 1.95 1.93 1.85
0.85 0.74 0.65 0.62 0.56 0.53 0.53 0.61 0.78 0.85 0.91 0.93 0.93 0.94 1.02 1.07 0.96 0.92 0.82 1.02 0.95 0.92 0.96 1.15 1.38 1.60 1.64 1.59 1.78 1.95 1.91 1.69 1.72 1.61 1.57 1.35 1.45 1.84 2.14 2.15 2.15 2.19 2.08
1.07 1.00 0.91 0.85 0.64 0.56 0.58 0.77 0.91 0.83 0.93 1.02 1.05 1.07 1.18 1.29 1.24 0.90 1.01 1.27 1.34 1.44 1.41 1.48 1.69 1.79 1.72 1.82 2.37 2.51 1.92 1.88 1.80 1.79 1.90 1.71 1.81 2.18 2.46 2.29 2.17 2.25 2.20
1.28 1.03 1.04 1.20 1.05 0.91 0.98 0.94 0.97 1.04 1.22 1.24 1.16 1.21 1.39 1.19 1.04 1.05 1.20 1.41 1.59 1.73 1.91 2.18 2.37 2.11 2.21 2.54 2.79 2.56 2.00 1.77 1.80 1.73 1.99 2.02 2.11 2.50 2.84 2.66 2.43 2.41 2.38
1.47 1.15 1.05 1.15 1.32 1.25 1.14 1.13 1.10 1.09 1.19 1.26 1.42 1.40 1.51 1.48 1.43 1.50 1.75 1.86 2.03 2.19 2.58 2.64 3.00 2.77 2.53 2.46 2.60 2.46 2.23 2.13 1.96 2.08 2.27 1.94 2.09 2.60 3.11 3.10 2.92 2.75 2.58
1.74 1.52 1.34 1.24 1.41 1.45 1.43 1.38 1.25 1.26 1.29 1.49 1.65 1.67 1.74 1.84 2.02 2.16 2.15 2.36 2.31 2.38 2.62 3.01 3.03 3.22 3.28 3.28 3.07 2.72 2.65 2.48 2.25 2.37 2.46 2.33 2.26 2.49 3.03 3.44 3.33 3.10 2.78
2.20 2.04 1.75 1.52 1.45 1.51 1.55 1.60 1.66 1.62 1.80 1.86 1.99 2.04 2.20 2.40 2.59 2.80 2.80 2.85 2.60 2.58 2.87 3.15 3.25 3.77 3.75 3.62 3.18 2.91 2.77 2.68 2.44 2.35 2.52 2.62 2.31 2.27 2.68 3.39 3.68 3.48 3.25
2.48 2.46 2.30 2.13 2.06 2.13 2.28 2.24 2.10 2.23 2.32 2.42 2.54 2.57 2.63 2.73 3.00 3.18 3.11 3.00 2.93 2.89 3.10 3.33 3.51 3.70 3.56 3.42 3.28 3.09 2.97 2.76 2.40 2.38 2.43 2.63 2.49 2.31 2.57 2.99 3.44 3.53 3.59
2.59 2.91 2.96 2.76 2.89 3.00 3.14 3.10 2.84 2.82 2.85 2.88 2.86 2.88 2.89 2.99 3.16 3.50 3.27 3.09 3.40 3.18 3.35 3.84 3.90 3.91 3.91 3.70 3.52 3.23 3.06 2.87 2.40 2.28 2.29 2.56 2.91 2.51 2.60 2.94 3.15 3.25 3.71
2.75 3.22 3.43 3.52 3.69 3.70 3.71 3.67 3.59 3.47 3.35 3.12 3.13 3.11 2.97 2.96 3.06 3.38 3.28 3.32 3.37 3.60 3.65 3.41 4.01 4.10 4.04 3.85 3.28 3.07 2.73 2.58 2.48 2.20 2.32 2.42 2.77 2.61 2.60 2.69 2.93 3.12 3.70
3.17 3.55 4.03 4.20 4.27 4.04 3.91 3.87 3.73 3.48 3.34 3.19 3.19 3.10 2.87 2.89 2.93 3.36 3.21 3.18 3.26 3.60 3.62 3.62 4.02 4.03 3.80 3.78 3.05 2.79 2.62 2.24 2.22 2.28 2.14 2.30 2.46 2.13 2.28 2.59 3.07 2.76 3.02
3.72 3.98 4.25 4.62 4.73 4.50 4.45 4.38 4.27 3.95 3.80 3.47 3.07 2.71 2.64 2.61 2.76 3.21 2.98 3.29 3.22 3.34 3.41 3.43 3.73 3.86 3.53 3.60 3.59 3.11 2.44 2.03 2.00 2.00 2.03 2.15 2.14 2.21 2.66 3.12 3.26 3.17 3.01
3.55 4.04 4.37 4.36 4.23 3.97 4.08 4.37 4.59 4.56 4.06 3.46 3.10 2.96 2.63 2.52 2.59 2.76 3.01 2.93 2.97 3.18 3.20 3.26 3.56 3.56 3.20 3.33 3.59 3.64 2.91 2.55 2.09 1.62 1.91 2.02 2.06 2.36 2.55 2.70 3.05 3.37 3.41
2.98 3.49 3.63 3.48 3.40 3.25 3.31 3.64 3.86 4.08 3.82 3.47 3.16 2.91 2.62 2.51 2.45 2.53 2.71 2.75 2.78 2.70 2.94 3.17 3.12 3.15 3.10 3.07 3.14 3.56 3.26 2.84 2.37 1.85 1.69 1.79 2.08 2.31 2.32 2.50 2.55 2.82 3.03
2.11 2.37 2.56 2.74 2.82 2.81 2.85 3.04 3.24 3.39 3.33 3.17 3.05 2.81 2.55 2.29 2.22 2.27 2.35 2.37 2.43 2.43 2.73 2.53 2.58 2.86 3.10 2.96 2.89 2.89 2.96 3.06 2.92 2.32 1.84 1.74 1.96 2.12 2.13 2.06 2.24 2.53 2.59
1.83 2.04 2.26 2.56 2.69 2.76 2.72 2.80 3.01 3.28 3.25 2.99 2.76 2.70 2.54 2.31 2.07 1.99 2.17 2.25 2.24 2.21 2.32 2.39 2.70 2.69 2.81 2.79 2.74 2.76 2.91 2.94 2.76 2.58 2.26 2.07 1.99 1.79 1.80 1.93 2.10 2.36 2.46
1.66 1.89 2.12 2.35 2.33 2.43 2.48 2.49 2.53 2.66 2.74 2.59 2.46 2.41 2.24 2.05 1.91 1.89 2.01 2.22 2.16 2.12 2.23 2.31 2.42 2.44 2.53 2.60 2.55 2.55 2.78 2.67 2.61 2.72 2.44 2.29 2.19 1.87 1.83 1.90 1.98 2.14 2.20